Regional Weather Roundup
Issued by NWS Nashville, TN

Home | Current Version | Previous Version | Text Only | Print | Product List | Glossary On
Versions: 1 2 3 4 5 6 7 8 9 10 11 12 13 14 15 16 17 18 19 20 21 22 23 24 25 26 27
000
ASUS44 KOHX 220910
RWROHX
MIDDLE TENNESSEE HOURLY WEATHER ROUNDUP
NATIONAL WEATHER SERVICE NASHVILLE TN
400 AM CDT SUN OCT 22 2017

NOTE: "FAIR" INDICATES FEW OR NO CLOUDS BELOW 12,000 FEET WITH
NO SIGNIFICANT WEATHER AND/OR OBSTRUCTIONS TO VISIBILITY.

* THESE REPORTS ARE NOT UNDER NWS QUALITY CONTROL AND MAY NOT
  REPORT WEATHER SUCH AS PRECIPITATION AND FOG.


TNZ005>011-023>034-057-059-062>066-078-080-221000
...NORTHERN MIDDLE TENNESSEE...

CITY           SKY/WX    TMP DP  RH WIND       PRES   REMARKS
CLARKSVILLE    CLOUDY    62  54  74 SE7       30.09F
CROSSVILLE     CLOUDY    60  47  61 S6        30.23F
GALLATIN       CLEAR     61  52  72 E5        30.17F
DICKSON          N/A     65  56  72 SE10      30.09F
LEBANON        PTCLDY    64  50  60 SE8       30.14F
NASHVILLE      MOCLDY    63  54  72 SE7       30.14F
PORTLAND       CLEAR     64  52  63 S8        30.13F
SMYRNA         MOCLDY    55  53  93 CALM      30.15F
SPARTA         MOCLDY    63  50  63 S6        30.18F
SPRINGFIELD    MOCLDY    64  55  72 VRB6G14   30.09F
WEST NASHVILLE CLEAR     64  55  72 SE6       30.11S
$$
TNZ056-058-060-061-075>077-079-093>097-221000
...SOUTHERN MIDDLE TENNESSEE...

CITY           SKY/WX    TMP DP  RH WIND       PRES   REMARKS
COLUMBIA       CLEAR     66  55  68 VRB7      30.10F
FAYETTEVILLE   CLEAR     63  52  67 SE8       30.14F
MURFREESBORO   MOCLDY    66  50  56 S12       30.14F
PULASKI        PTCLDY    64  55  72 SE7       30.12F
SHELBYVILLE    CLEAR     63  52  67 SE7       30.14F
TULLAHOMA      CLEAR     63  46  55 S13       30.17F
WINCHESTER     CLEAR     63  52  67 S8          N/A
$$


...KEY TO REMARKS...
VSB - VISIBILITY IN MILES
WCI - WIND CHILL INDEX
HX  - HEAT INDEX





USA.gov is the U.S. government's official web portal to all federal, state and local government web resources and services.